RH
67 68 66 61 62 60 60 56 54 58 45 48 59 52 54 59 58 59 61 61 59 57 57 58 56 52 50 47 45 46 48 51 51 49 49 51 54 59 60 61 64 62 60 61 62 65 69 72 75 77 80 84 86 89 91 91 92 92 92 93 95 97 96 96 97 96 96 96 97 96 95 94 95 97 97 98 99 99 99 99 95 80 75 81 86
63 64 63 62 62 62 62 57 54 56 50 54 63 61 63 63 62 64 64 64 61 57 58 57 50 45 43 40 40 42 44 45 46 47 48 50 53 58 60 61 64 64 63 64 64 67 70 73 76 78 79 83 84 86 89 89 90 91 92 95 97 97 98 98 97 97 97 98 98 97 97 96 95 95 96 98 99 99 99 100 100 89 77 74 82
62 61 63 62 64 66 63 61 59 59 60 65 70 69 69 67 67 67 65 66 62 58 59 54 46 41 39 37 38 40 42 45 46 48 49 51 52 55 59 62 64 65 66 68 68 68 68 70 72 73 75 78 81 84 88 89 91 94 94 96 99 99 100 100 98 97 98 99 98 98 98 97 95 95 96 97 98 98 98 99 100 98 85 73 74
62 61 63 63 65 65 64 66 63 64 69 70 73 72 72 71 72 73 72 68 62 59 56 50 45 42 39 38 38 41 44 45 47 48 49 51 53 56 58 61 65 66 67 69 68 66 65 65 65 65 69 72 74 77 82 87 90 92 94 97 99 100 100 100 100 99 99 99 99 98 98 99 97 97 98 98 98 98 98 98 99 100 95 82 73
65 62 63 63 65 66 67 67 65 71 75 74 76 73 73 74 73 75 73 65 61 58 52 47 45 43 43 42 41 43 45 46 46 47 49 52 55 58 60 62 66 67 69 70 69 67 65 65 64 65 71 74 72 73 78 84 88 90 94 99 99 100 100 100 100 100 100 100 100 99 99 100 99 99 99 98 99 99 99 99 99 99 98 96 84
68 66 66 66 66 68 70 68 69 77 78 78 78 73 73 75 71 70 67 59 57 54 49 47 46 45 46 45 44 44 45 45 44 46 49 54 58 60 63 66 68 68 69 71 71 70 67 67 70 73 77 75 73 74 76 79 81 84 89 95 95 96 99 99 100 100 100 100 100 100 100 100 100 100 99 99 100 99 100 99 98 99 97 98 90
71 71 73 70 68 72 73 70 73 79 78 77 79 75 73 73 69 67 64 57 54 52 48 50 49 47 48 47 45 43 43 44 45 48 50 55 60 62 65 66 66 65 66 68 73 74 72 71 75 79 78 74 73 74 75 75 75 77 80 83 84 87 94 100 100 100 100 100 100 100 100 100 100 100 100 99 100 100 100 99 98 100 97 94 91
71 74 77 73 69 70 70 72 78 80 75 75 78 76 74 74 71 66 63 58 54 52 50 50 49 47 47 46 45 43 44 45 46 50 53 55 59 63 66 65 63 63 61 64 71 74 74 75 79 83 79 73 74 76 76 76 75 75 74 73 73 76 84 93 97 97 98 100 100 100 100 100 100 99 101 100 100 100 99 100 99 99 99 96 94
73 75 77 77 70 65 70 77 82 80 77 78 79 76 76 77 74 69 64 58 55 54 52 50 48 45 45 45 45 44 46 46 48 52 55 56 58 61 63 62 62 62 58 60 67 68 70 77 82 83 78 73 76 78 78 77 76 74 73 71 71 71 67 71 83 87 91 93 93 99 100 99 101 99 100 100 100 99 98 99 100 99 100 99 96
76 75 76 77 70 67 76 78 80 83 81 81 80 76 76 74 72 72 68 62 58 57 57 55 50 46 45 46 46 47 47 49 52 55 57 57 57 58 59 60 60 58 55 57 62 62 67 80 86 85 79 73 75 77 77 78 75 71 72 75 74 69 54 52 70 78 82 82 81 94 100 96 100 100 100 101 99 100 99 99 101 99 97 98 98
76 74 75 76 72 73 76 73 81 88 83 81 78 74 73 69 70 75 73 67 62 63 64 60 53 48 48 50 49 49 51 54 55 57 59 58 57 57 58 62 59 54 53 54 59 61 65 76 81 83 81 75 75 73 75 77 72 69 74 78 74 67 55 55 73 81 82 76 71 90 99 91 94 97 98 101 100 100 100 99 99 99 98 98 99
75 73 75 73 74 79 72 72 88 90 82 82 78 73 72 71 73 77 79 72 66 70 66 58 56 49 47 52 53 56 59 60 58 57 59 56 58 60 59 61 54 51 56 54 57 61 65 71 73 75 74 73 73 69 75 77 68 70 77 75 70 67 66 71 86 91 88 76 67 82 93 89 94 95 93 95 99 101 99 100 99 99 100 99 99
73 73 74 72 81 85 71 75 92 89 83 84 79 75 72 74 75 72 77 78 71 74 64 55 60 51 49 58 59 61 65 64 60 56 57 56 59 60 56 55 49 51 58 53 55 61 67 70 69 71 68 67 67 64 72 74 68 74 77 72 67 66 71 82 94 96 92 84 78 86 90 90 95 97 92 90 96 101 100 100 100 100 100 99 99
73 73 72 74 87 86 71 79 90 86 85 83 81 80 73 74 74 64 72 82 76 73 64 57 64 57 55 66 67 66 66 64 62 57 56 57 60 59 53 50 53 57 56 51 55 63 69 67 63 69 67 64 64 60 64 71 74 77 74 70 66 63 74 88 95 95 93 91 92 94 93 91 92 94 95 94 97 100 100 100 100 100 100 99 100
76 76 76 84 91 78 69 81 88 86 86 80 79 81 76 76 75 69 75 82 74 72 68 59 64 66 62 70 73 75 77 69 64 60 55 56 59 59 54 50 58 62 54 54 60 62 67 66 62 66 65 64 64 59 61 68 73 73 70 68 62 58 72 88 93 91 90 92 94 95 94 95 94 93 96 97 97 97 98 100 100 100 100 99 100
72 73 79 89 86 71 71 83 88 87 83 76 76 79 80 78 76 77 79 75 68 71 72 58 59 70 72 74 68 70 79 71 64 63 55 57 60 59 56 52 57 57 51 57 62 60 63 64 62 62 61 60 57 56 60 63 67 71 70 65 59 61 72 84 92 90 87 89 92 93 94 96 95 94 96 97 96 97 97 98 100 100 97 96 99
70 73 80 82 76 75 79 83 86 86 80 77 79 80 81 77 74 77 74 67 65 70 73 61 57 64 70 77 71 69 76 64 62 67 57 57 61 57 57 53 50 46 47 57 62 61 60 58 56 54 53 52 50 54 58 62 71 73 67 61 61 68 73 79 88 89 86 87 89 90 92 93 94 94 95 95 95 96 97 97 98 98 96 95 98
75 81 84 76 75 85 86 83 85 83 79 81 80 77 78 76 71 72 69 65 66 67 70 67 63 61 61 68 69 70 73 64 67 73 64 59 57 52 54 54 48 41 44 55 61 60 55 51 50 49 50 50 50 57 59 64 72 67 62 63 63 70 75 75 78 81 83 87 87 88 91 91 92 93 93 93 94 94 95 96 96 97 97 96 98
79 86 86 75 77 89 87 83 84 82 81 81 78 76 77 76 71 70 69 68 67 65 65 66 66 65 62 63 62 61 61 58 66 73 72 70 60 49 48 54 54 44 43 54 55 52 51 50 49 47 50 51 53 59 59 62 67 63 62 64 60 67 75 72 70 69 71 82 87 86 89 88 89 92 92 91 93 94 94 94 95 96 97 96 96
82 90 87 77 79 88 86 83 81 80 81 80 79 80 78 76 74 73 73 72 71 67 64 66 66 65 63 62 63 62 57 52 56 63 69 73 68 56 48 55 59 45 42 53 48 42 49 50 47 48 50 52 55 58 59 62 64 63 65 64 61 67 72 68 66 61 60 74 86 87 86 84 86 91 91 93 96 96 95 92 94 94 94 95 96
90 94 86 79 82 86 84 83 80 79 82 81 80 80 78 77 76 76 76 74 74 71 68 68 68 65 62 59 60 61 58 51 50 54 58 62 65 61 50 52 61 49 38 46 44 40 47 48 45 48 51 53 57 57 60 65 66 63 64 66 66 69 70 64 59 58 58 67 77 83 85 84 87 92 91 91 93 96 97 94 93 93 93 95 96
95 97 90 86 89 90 86 83 80 79 81 80 78 78 79 78 76 78 79 77 76 73 70 70 67 63 61 60 60 61 60 57 54 54 55 55 58 55 41 40 58 58 41 41 44 41 44 45 43 48 51 54 58 57 60 67 65 60 61 68 71 69 66 60 56 58 61 62 63 71 82 86 89 92 88 83 84 91 95 93 93 94 95 96 97
93 95 93 87 85 88 87 83 80 78 76 75 76 78 78 77 77 79 80 78 76 72 68 67 66 63 61 60 61 61 62 62 59 56 57 58 59 55 40 33 47 57 49 44 42 39 43 45 44 49 52 54 59 58 60 66 64 60 62 69 72 65 59 58 57 59 61 61 60 64 77 86 89 89 85 80 82 90 93 92 94 95 96 98 98
90 92 89 84 82 84 85 82 77 72 71 73 75 75 74 76 79 81 81 81 79 75 70 66 64 64 63 62 62 62 61 61 58 56 56 55 57 57 49 41 44 49 47 43 36 36 45 46 44 49 51 53 60 59 61 66 62 58 62 69 70 61 56 59 59 60 61 61 61 63 71 81 87 87 84 83 86 91 92 92 93 93 93 94 96
89 92 89 85 85 84 83 79 73 68 68 70 71 72 74 77 80 81 81 81 80 78 74 70 67 65 65 64 62 62 61 60 57 56 56 52 54 60 55 47 46 43 38 38 34 34 43 45 44 47 49 54 60 57 60 67 62 57 61 68 68 60 57 60 60 61 61 59 61 63 65 73 82 86 85 87 90 91 93 93 92 92 91 92 94
88 90 88 86 86 84 81 77 72 69 69 69 70 72 74 78 80 80 80 80 79 78 75 72 70 67 66 65 62 61 60 60 58 55 56 53 53 57 55 54 50 37 31 37 37 37 40 42 44 46 47 53 57 53 57 64 61 58 61 63 61 58 58 59 59 60 60 59 62 62 63 68 74 80 83 86 89 91 92 92 92 93 92 94 97
90 90 89 89 87 83 79 77 74 72 70 70 70 73 77 79 79 77 76 76 76 77 76 73 70 66 63 63 63 63 60 60 59 57 56 53 50 48 52 64 63 45 36 38 40 42 42 42 44 44 45 50 52 50 56 61 58 58 61 59 57 56 56 57 58 60 59 61 63 61 63 67 69 74 80 84 86 88 89 90 91 93 94 96 97
94 95 91 88 83 80 79 78 75 71 69 70 71 75 78 76 73 71 72 71 71 75 75 71 68 65 62 61 62 64 62 61 60 59 55 52 51 48 49 61 70 61 53 50 48 48 46 45 44 41 42 47 45 45 54 58 55 58 59 57 56 55 54 55 58 58 58 60 60 60 63 66 69 71 76 83 84 85 89 91 92 94 95 97 97
94 92 88 83 80 80 79 77 74 71 69 70 72 76 77 74 73 73 74 74 73 73 72 70 67 64 61 60 60 61 60 59 59 58 54 50 51 52 51 57 67 69 67 65 61 53 49 50 45 39 41 43 40 43 51 55 54 56 57 56 56 55 53 55 58 58 56 56 57 59 63 66 69 70 72 77 80 85 92 92 92 93 94 96 96
91 87 84 82 80 79 78 77 74 70 70 71 73 75 75 73 73 74 73 73 72 70 67 65 63 60 59 59 59 58 57 55 55 54 53 52 51 53 55 58 63 66 66 67 66 54 47 51 45 39 42 42 38 41 48 53 55 53 55 56 56 56 54 54 59 58 53 53 56 59 62 65 67 69 70 71 76 84 87 84 86 89 91 95 94
87 84 82 81 80 79 77 75 72 69 69 70 73 74 72 71 72 72 72 70 69 67 65 63 60 58 57 56 55 55 54 53 52 52 52 52 53 55 57 58 61 64 58 58 66 57 45 47 44 38 42 41 37 40 45 51 55 52 53 55 56 57 56 55 59 58 51 51 56 59 61 64 66 68 69 71 76 79 77 77 82 84 89 94 93
83 81 79 80 80 79 76 73 70 69 69 70 72 72 70 70 70 69 67 65 64 63 62 61 60 58 57 56 55 52 51 49 48 50 51 52 55 57 58 58 60 63 56 52 61 58 44 43 43 38 41 42 37 39 44 49 54 53 52 54 55 54 54 55 56 54 49 49 54 58 61 62 63 67 69 71 75 74 71 76 82 84 87 91 92
82 81 79 80 81 79 75 71 67 68 68 70 72 70 68 68 66 65 62 59 57 56 56 56 56 56 56 56 55 53 51 49 46 48 50 52 55 57 59 60 59 61 59 52 54 54 46 41 41 39 41 42 40 39 42 48 53 52 51 53 53 50 50 53 53 50 47 46 52 58 61 61 61 65 68 70 73 70 67 74 83 84 85 87 88
83 85 82 80 80 77 73 68 65 65 67 70 71 67 65 64 62 60 58 56 56 55 55 57 57 57 56 56 55 54 53 52 51 52 53 53 54 56 59 61 59 59 59 54 50 50 47 42 39 40 42 42 41 40 41 48 51 49 50 52 50 48 48 50 51 49 44 45 51 56 59 60 59 63 67 68 71 69 65 72 82 82 81 83 85
85 87 81 77 76 73 70 67 64 63 66 69 68 64 63 62 59 57 57 56 56 55 55 59 60 58 57 57 55 53 53 54 55 57 57 55 54 55 55 57 59 58 57 54 50 46 45 43 40 40 40 40 41 40 40 46 49 48 49 52 50 47 48 49 50 47 42 43 48 52 58 59 58 62 65 65 69 67 63 71 79 77 76 79 81
87 84 77 74 73 71 69 67 64 62 66 69 66 63 62 60 58 57 56 55 54 53 55 57 58 57 57 56 55 55 55 55 56 57 58 58 57 55 54 54 57 59 53 49 47 45 43 43 42 40 39 38 40 39 38 44 50 49 50 53 50 46 47 49 49 45 41 43 44 47 54 57 56 60 62 62 66 63 60 68 75 73 74 77 78
86 80 74 72 71 69 68 66 62 62 66 66 63 62 60 57 56 55 54 54 54 55 56 55 56 56 57 57 57 59 60 58 56 56 57 60 60 58 57 55 56 58 53 45 43 43 42 41 40 39 38 37 38 38 39 45 51 51 52 53 49 46 48 48 46 43 42 43 41 41 48 53 54 57 58 59 58 54 55 65 71 70 72 75 74
83 76 72 71 67 66 65 62 61 63 65 63 60 59 57 54 54 54 55 56 56 56 56 56 56 57 57 58 59 61 64 63 61 59 58 60 63 63 61 58 56 54 51 44 39 40 41 40 39 39 37 36 38 39 40 47 53 54 55 55 49 47 50 50 47 44 43 43 39 36 43 50 50 52 56 55 50 48 53 62 68 70 71 72 70
81 74 72 69 64 63 61 59 61 63 61 59 57 56 55 55 56 56 56 55 55 56 57 56 57 57 56 56 55 57 60 63 64 64 61 60 64 66 64 60 56 51 48 43 37 37 40 39 39 41 38 35 37 40 41 48 56 58 60 60 53 50 52 52 50 47 44 43 38 33 39 48 48 48 52 51 46 46 51 58 64 66 67 68 66
80 76 71 66 61 60 59 59 62 61 58 57 56 55 56 57 58 57 55 56 57 56 56 55 54 51 48 46 46 48 52 56 59 62 63 62 63 67 67 62 56 51 48 44 39 36 38 40 41 42 40 38 39 42 45 51 58 62 63 63 58 53 52 53 52 47 44 43 39 33 38 47 48 45 47 45 42 43 48 53 58 60 61 63 61
79 76 68 62 58 57 57 59 61 59 56 55 55 55 57 58 58 57 58 59 57 55 55 52 44 37 35 35 38 40 41 41 40 42 47 52 56 62 66 64 59 55 51 47 43 38 37 40 44 43 43 43 42 44 49 55 60 63 64 64 60 53 51 53 50 44 43 45 40 34 38 48 49 46 45 43 40 42 45 49 53 54 53 54 55
76 72 65 60 57 56 58 61 60 57 56 54 54 56 58 59 59 59 60 59 56 56 52 42 31 29 32 35 35 33 28 23 20 20 22 28 38 50 59 63 63 60 55 52 48 43 40 42 44 45 46 45 44 47 52 54 57 62 65 67 63 53 51 54 47 41 45 46 38 35 41 49 52 49 47 44 41 42 45 46 49 49 47 48 50
73 66 62 60 57 57 60 61 59 57 56 53 54 56 58 58 58 58 58 56 56 56 46 33 29 31 32 32 29 25 21 20 21 22 18 13 14 23 36 49 59 64 63 60 55 48 44 43 44 46 48 46 46 50 51 49 52 59 64 69 66 54 52 56 48 43 49 45 36 39 47 52 54 50 46 45 43 43 44 44 44 44 42 44 48
70 63 61 59 58 58 60 60 61 59 55 52 53 55 56 56 56 56 55 54 54 52 40 33 35 36 34 35 33 30 31 33 35 36 33 26 18 14 15 24 41 55 62 64 61 55 49 46 45 47 49 50 51 52 50 44 47 55 60 67 67 55 52 56 48 44 49 43 35 42 51 54 53 49 45 44 43 42 44 42 40 39 39 42 46
66 62 61 58 58 59 60 64 64 59 52 51 52 53 54 54 53 53 53 52 50 45 39 40 47 49 52 55 54 50 48 50 54 53 50 47 42 34 26 23 27 38 48 53 54 52 49 46 47 48 51 52 50 48 46 41 41 48 54 62 64 54 50 53 46 41 46 41 36 44 51 53 51 46 43 42 40 40 42 41 40 39 39 41 43
63 61 61 59 59 60 63 68 67 57 51 51 51 51 52 51 50 50 50 50 50 48 47 50 54 56 57 59 58 57 57 60 65 64 62 61 57 50 43 34 23 22 31 38 41 43 44 44 48 49 48 47 44 42 40 36 37 43 49 56 59 51 47 49 43 40 44 42 37 42 50 52 48 44 42 39 39 39 39 39 40 40 40 39 39
63 62 60 59 60 63 67 69 64 55 51 51 50 50 50 49 49 48 47 48 49 50 50 51 51 50 50 51 53 56 61 63 62 61 64 67 65 61 55 48 38 32 34 37 40 43 45 46 48 47 45 43 42 41 39 35 37 42 46 50 51 47 46 46 42 40 43 42 38 39 48 51 46 44 43 41 41 40 37 37 38 39 39 38 38
66 64 61 62 63 64 67 67 61 54 51 51 50 50 49 49 49 49 48 49 49 49 50 50 49 47 47 46 47 52 57 56 54 55 58 59 60 59 57 56 57 56 50 44 43 46 48 49 48 47 46 43 42 43 42 39 40 42 44 47 45 43 46 46 43 41 42 42 38 36 44 48 42 41 44 44 45 42 36 36 38 37 37 36 37
68 64 62 63 62 61 63 65 60 53 51 51 50 49 49 49 51 51 50 51 51 50 50 50 48 45 42 40 42 47 49 48 50 52 52 52 51 50 49 51 55 57 52 44 41 44 47 50 49 47 46 42 41 43 42 41 42 42 45 49 44 42 47 47 44 44 42 41 38 35 41 45 39 39 44 46 48 45 38 36 37 36 36 34 34
67 64 62 62 59 57 59 61 59 53 51 51 49 48 49 50 49 48 48 50 50 47 48 50 49 44 40 39 38 38 39 43 48 48 49 51 50 47 45 45 45 49 50 47 44 44 45 48 46 43 41 39 37 38 38 40 43 41 43 47 40 38 45 46 43 44 42 40 37 34 39 43 37 38 45 46 47 46 40 37 38 37 35 34 34
65 62 61 59 57 56 55 56 54 51 50 49 47 47 49 50 48 45 44 47 48 47 50 54 50 42 37 38 33 26 29 41 47 46 49 51 49 46 44 41 41 43 44 44 46 45 44 45 41 35 33 31 30 33 33 36 40 40 39 39 34 34 41 41 39 43 46 44 36 31 37 41 37 38 45 49 52 50 41 38 39 38 36 36 36
Wind_Speed
11 10 11 12 12 10 11 9 9 11 8 5 6 8 7 5 5 4 5 6 7 6 3 5 6 6 5 3 2 2 1 1 3 4 4 4 4 4 6 8 8 9 8 8 8 8 8 8 8 8 8 8 8 9 10 11 12 13 14 14 14 15 16 16 15 15 14 14 14 14 14 15 15 15 14 13 13 13 12 11 12 13 12 11 11
12 12 12 12 11 10 11 9 8 7 7 6 5 5 4 4 6 5 5 6 6 5 3 5 6 4 4 3 1 1 2 4 4 4 5 6 5 4 5 6 7 9 9 9 9 8 8 8 9 9 9 9 9 10 11 11 12 13 13 13 14 14 14 15 15 15 15 15 15 15 15 15 16 16 15 15 14 14 13 12 11 13 13 12 12
12 13 12 11 10 10 11 8 6 5 6 7 4 4 3 4 5 4 4 6 6 6 4 5 6 3 3 3 2 4 5 6 4 4 5 5 4 4 5 5 6 8 8 9 9 9 9 9 9 9 9 10 10 10 11 12 12 13 14 14 13 14 15 15 15 15 15 16 16 16 16 16 16 16 16 15 16 16 16 14 12 12 14 14 12
12 13 12 11 10 10 10 8 6 6 6 6 4 4 5 4 4 4 5 6 7 6 4 4 4 3 3 4 4 5 5 5 4 5 6 5 5 5 4 4 6 7 8 8 10 11 11 11 11 10 9 10 11 11 11 12 12 12 13 14 13 13 14 15 16 16 16 16 17 17 17 17 16 16 16 16 17 17 17 16 15 13 13 15 13
12 13 12 11 10 9 10 8 6 6 6 5 4 5 5 5 4 6 7 6 6 5 4 4 2 2 2 4 5 6 4 4 4 5 6 6 7 6 4 5 6 7 7 7 9 11 13 14 13 11 10 12 13 13 13 12 13 13 13 14 14 13 13 15 16 17 18 17 17 18 18 18 18 17 17 18 17 17 18 18 18 16 14 14 14
12 14 12 11 11 10 9 8 7 6 5 5 4 4 6 6 4 5 6 5 5 5 4 2 0 2 3 3 5 5 2 3 5 6 7 7 8 8 8 7 7 8 7 7 8 10 13 14 12 10 11 15 16 15 15 15 15 16 15 14 15 15 14 15 16 17 18 18 17 17 18 17 17 17 18 19 18 18 18 18 18 18 17 14 13
13 15 12 11 11 9 8 7 7 6 6 6 5 4 7 5 2 3 5 5 5 4 3 1 1 2 2 1 3 3 2 6 6 5 7 7 8 9 9 9 9 9 8 7 7 9 12 13 10 10 13 17 18 18 18 18 18 17 16 16 16 16 15 14 15 17 18 18 17 18 19 18 16 17 17 18 18 18 19 19 19 19 19 16 13
14 15 13 12 10 8 8 7 5 5 5 7 5 3 5 3 2 4 5 6 5 3 1 0 1 1 1 2 4 2 3 7 6 6 8 8 9 9 9 9 9 9 9 9 8 9 11 12 10 10 15 19 19 19 19 19 19 18 19 20 19 18 16 15 15 17 17 18 18 19 21 20 18 18 17 17 18 18 18 19 20 19 19 17 16
15 14 13 11 8 7 6 5 3 3 4 5 4 3 3 1 3 3 4 7 5 1 0 1 0 1 0 3 4 2 3 5 5 7 8 9 9 8 9 10 9 10 10 10 10 11 12 11 8 10 16 20 20 19 19 19 19 21 22 22 21 20 20 18 18 18 17 17 18 20 21 20 20 20 19 19 19 19 17 16 19 20 20 18 18
15 13 13 10 8 5 4 4 3 4 4 3 4 4 3 4 4 1 3 5 4 2 0 2 2 1 2 4 2 3 5 5 6 7 7 8 9 8 9 11 10 11 11 10 11 12 11 10 8 11 17 20 20 20 19 20 21 23 23 24 23 23 24 22 21 20 20 19 19 21 21 18 19 21 21 21 21 21 20 17 17 19 21 20 19
14 13 12 10 6 3 4 5 5 4 4 4 3 3 4 5 4 0 4 4 2 2 1 2 2 1 2 4 4 4 6 6 7 7 7 8 9 9 10 11 11 11 12 10 11 11 10 11 11 15 19 19 20 20 18 19 22 24 23 24 26 27 27 25 23 23 23 23 22 21 21 19 19 20 19 21 22 23 22 20 19 19 19 20 21
13 12 11 9 5 4 5 6 5 4 4 3 3 3 3 3 3 1 6 6 1 2 3 2 3 3 3 5 5 4 6 6 6 7 7 8 8 10 11 11 11 11 12 10 10 11 10 12 12 14 18 18 20 20 17 18 22 23 22 24 27 29 29 25 24 24 25 25 24 23 21 20 21 21 20 19 21 23 23 22 21 21 19 18 19
12 11 9 8 4 7 7 8 5 3 4 4 4 4 3 2 2 2 5 10 2 3 5 2 2 2 4 8 8 5 6 6 5 7 7 8 8 8 11 12 12 12 11 10 13 12 10 13 13 13 14 14 17 19 17 18 21 21 21 25 28 30 29 25 24 25 26 27 26 25 24 21 21 21 20 21 21 22 22 22 23 23 22 20 19
9 8 8 6 4 7 6 9 7 4 5 5 5 5 3 1 1 4 3 13 4 3 6 3 3 3 0 5 8 6 5 4 5 6 7 9 8 7 10 12 12 12 10 10 14 14 12 13 13 13 13 12 13 16 17 17 19 20 21 25 29 31 28 24 25 26 27 28 27 26 25 24 24 22 22 23 23 22 21 21 23 24 24 23 22
7 6 4 2 6 4 6 8 8 6 7 6 5 4 3 2 1 4 5 14 4 3 6 6 6 4 3 2 4 4 2 3 4 5 5 9 9 8 10 12 11 11 11 11 11 13 13 14 13 12 13 12 13 14 14 15 16 19 22 25 30 32 27 24 25 26 27 27 27 26 26 26 26 25 24 25 25 24 22 21 22 23 23 25 24
12 9 4 7 11 6 7 6 8 8 7 7 6 5 5 3 3 3 7 11 4 3 5 6 7 5 2 3 3 3 2 2 5 6 5 8 11 10 11 12 12 10 11 11 9 11 13 14 14 13 13 13 14 14 14 14 16 18 22 27 31 31 27 25 25 26 27 27 26 26 26 27 27 26 26 26 27 26 24 22 22 23 23 24 24
12 9 7 7 8 7 7 6 8 9 8 7 6 6 6 5 4 2 5 6 2 4 4 6 8 9 6 2 2 1 2 2 2 5 4 9 12 11 12 13 13 11 11 10 10 11 12 13 14 13 14 15 15 15 15 16 17 20 24 30 31 29 28 28 26 27 28 27 27 26 25 26 26 26 27 27 27 26 25 24 24 23 23 25 23
8 5 7 8 8 9 9 7 8 9 9 9 7 7 7 6 3 1 2 2 3 4 8 6 8 9 9 8 5 4 3 4 3 2 2 10 15 13 12 12 12 11 10 10 11 12 11 13 14 14 15 16 15 15 16 16 17 22 26 29 29 28 28 30 30 30 29 27 27 27 26 26 26 26 26 26 26 25 25 25 25 25 24 25 23
6 6 8 9 9 10 11 9 9 9 9 8 7 7 7 5 3 1 1 1 3 3 8 6 7 8 8 8 8 8 8 6 4 0 1 7 12 12 11 10 11 11 11 10 11 13 13 12 13 14 15 16 16 16 16 15 17 22 26 27 28 28 28 31 34 35 32 29 28 28 28 28 28 27 26 25 25 25 25 25 25 25 25 24 24
8 8 9 9 10 12 13 10 9 10 9 9 7 8 8 5 3 3 2 2 4 7 8 6 7 8 6 5 5 6 9 10 7 3 1 1 5 8 10 11 11 12 12 10 11 13 13 11 13 15 14 16 16 16 17 16 18 22 24 24 26 25 27 32 35 35 33 31 30 29 30 30 28 27 26 26 25 25 25 24 24 24 24 24 24
10 9 9 10 11 13 14 9 7 10 11 10 9 9 9 6 4 3 3 4 6 8 9 10 10 9 7 6 5 5 9 11 10 8 4 3 2 3 7 11 12 12 12 11 11 13 12 11 15 15 14 16 16 16 18 16 19 26 24 22 23 22 26 31 32 31 33 34 33 33 31 30 28 27 27 26 25 25 25 24 24 24 24 24 24
12 11 11 12 12 12 12 9 9 11 11 11 9 9 9 8 6 4 4 5 7 9 11 11 11 11 10 11 12 10 10 10 11 11 7 5 4 3 5 7 7 10 11 11 10 11 10 11 16 15 15 18 15 16 18 16 22 26 22 19 20 22 27 29 29 30 33 35 37 38 35 31 29 28 28 27 26 26 25 25 25 24 24 24 24
13 13 15 15 14 12 11 11 12 12 11 11 10 10 9 8 7 6 7 7 8 11 12 12 12 13 13 14 15 14 12 11 11 11 9 7 5 4 7 8 3 9 10 10 9 8 9 12 16 14 15 17 14 16 16 16 21 22 19 17 17 24 29 27 27 29 31 34 38 41 38 33 31 30 28 27 26 26 26 26 25 25 25 25 25
13 13 16 17 16 14 12 13 13 11 10 11 11 11 10 9 8 8 8 9 10 11 13 13 13 14 14 14 14 14 14 13 11 11 10 10 7 6 7 9 4 8 11 10 11 12 11 12 16 13 14 16 12 16 14 14 19 19 18 16 15 24 28 23 24 26 29 34 37 40 39 35 32 30 28 27 27 27 27 26 26 25 25 25 25
15 14 16 17 16 14 13 14 13 11 11 13 12 11 10 10 9 9 9 10 11 13 14 14 13 13 13 14 14 14 14 12 11 11 11 11 11 8 8 8 6 4 13 13 13 14 11 13 17 14 15 14 10 15 14 11 18 20 17 15 15 22 23 19 22 24 28 34 36 38 39 38 34 30 29 28 28 28 27 26 26 25 25 24 24
16 15 15 16 17 16 14 14 13 12 12 13 12 11 11 10 10 11 11 12 13 13 14 14 14 13 13 14 15 14 13 12 12 13 12 12 13 10 9 8 8 1 13 16 16 14 9 12 17 15 16 12 9 16 15 11 18 19 16 16 19 21 19 17 19 22 28 32 34 36 38 38 37 33 30 29 29 28 27 27 27 26 25 25 25
16 15 15 15 16 16 15 15 14 13 13 12 12 12 11 11 12 12 12 12 13 14 14 14 14 14 14 14 14 15 14 13 13 14 13 12 12 11 9 6 5 2 10 13 15 15 11 11 13 15 16 12 11 18 14 11 19 19 15 17 19 19 18 18 18 22 29 32 33 36 36 37 37 35 32 30 30 30 29 28 27 27 27 26 27
18 16 15 16 16 16 15 15 15 14 13 12 12 11 11 12 12 12 12 12 13 14 14 14 14 14 14 14 15 15 14 14 14 13 13 12 11 12 12 9 6 2 5 7 8 11 13 12 11 14 16 13 14 18 13 13 20 19 16 18 18 18 21 20 18 24 30 32 34 36 35 35 36 35 33 30 30 30 30 30 28 28 29 28 29
21 18 16 16 15 15 15 15 15 14 12 12 12 11 12 13 12 13 13 12 13 13 12 13 14 14 14 15 15 15 14 14 14 13 13 13 12 12 12 11 9 5 3 4 4 8 11 11 10 14 16 13 15 18 14 14 20 19 17 19 19 19 22 21 19 24 31 33 35 35 33 33 34 34 33 31 31 30 29 30 30 31 32 32 33
20 19 17 16 14 15 16 15 15 13 12 13 12 11 12 13 13 13 12 12 13 13 13 13 14 14 15 15 15 15 15 14 14 13 13 13 12 12 12 11 11 9 5 2 4 8 10 9 10 14 15 14 16 18 17 16 19 19 19 19 20 20 22 22 19 22 30 33 33 33 32 32 32 33 32 31 30 29 31 33 33 34 34 34 35
22 21 18 16 15 15 16 15 14 13 13 13 12 11 13 13 13 13 12 12 13 13 12 13 13 14 14 14 14 14 14 13 13 13 14 14 12 12 12 11 11 10 10 6 4 7 10 10 11 14 15 14 16 19 19 18 18 19 20 20 19 19 21 22 20 21 28 32 32 32 31 30 31 32 30 29 29 30 35 35 34 37 37 35 36
24 22 17 15 16 15 15 15 14 14 13 12 11 11 12 12 12 12 12 12 13 13 12 12 12 13 13 13 13 13 12 12 13 13 13 13 12 12 11 11 11 11 11 9 6 7 10 12 10 13 15 14 15 19 20 20 20 19 19 19 19 20 20 21 20 20 26 32 32 29 29 29 31 30 28 26 28 32 36 35 34 37 40 38 39
22 19 16 16 15 14 15 15 14 13 13 11 10 10 12 12 12 12 12 12 13 13 13 13 13 13 13 14 13 12 11 11 12 13 12 12 12 12 11 11 12 12 11 10 8 7 10 12 11 13 16 15 15 19 21 21 22 21 19 18 18 20 21 20 19 19 25 32 31 26 26 29 30 28 26 25 27 31 36 35 32 36 42 42 42
22 19 18 17 15 14 15 14 13 13 12 10 10 11 12 13 13 13 12 13 13 13 13 13 13 13 13 14 13 12 11 12 13 12 11 11 11 11 11 11 11 11 11 11 9 7 8 11 13 14 16 16 16 18 21 22 21 21 20 18 17 19 21 21 19 19 25 31 30 26 24 27 28 25 24 25 26 30 36 34 31 36 42 44 43
22 20 18 18 16 15 14 13 13 12 12 11 10 12 13 13 13 14 13 14 14 13 13 13 12 13 13 13 13 12 12 12 13 12 11 10 10 10 11 10 10 10 10 10 9 8 9 10 12 14 16 17 17 18 20 21 19 19 20 19 18 19 21 22 19 19 26 31 31 27 24 26 27 23 21 24 26 30 35 33 30 34 41 44 44
21 20 19 18 17 16 15 13 13 13 12 11 11 12 13 13 14 15 14 14 13 13 13 13 12 12 13 13 12 11 11 12 12 11 11 10 9 9 9 9 9 8 9 10 10 9 10 10 10 12 15 17 17 17 20 21 19 18 19 19 18 20 22 22 18 19 26 31 31 29 25 26 28 23 20 23 27 31 34 31 28 32 38 43 47
21 21 20 18 17 16 15 14 13 13 12 11 12 13 14 15 15 15 15 14 14 14 13 13 13 12 12 12 11 10 10 11 11 11 11 10 9 9 8 8 7 7 7 9 11 10 10 10 11 12 14 16 17 17 18 21 20 18 20 20 19 20 23 22 19 20 26 30 32 31 27 26 29 25 19 22 29 33 33 30 28 31 35 41 47
21 20 19 18 17 16 15 14 13 13 12 12 13 14 15 16 16 16 15 15 15 14 14 13 13 12 12 12 11 10 10 10 10 10 10 9 9 9 8 7 7 7 7 9 11 11 10 11 11 12 14 16 17 18 18 19 19 18 20 21 20 22 24 23 20 21 27 30 32 32 28 25 29 28 21 21 29 33 31 29 29 30 32 38 46
21 20 19 17 17 16 15 15 14 13 13 14 15 15 16 16 16 17 17 16 16 15 14 14 13 12 12 11 11 10 10 9 9 10 10 9 7 7 8 7 7 7 8 9 11 11 11 11 12 12 13 15 17 18 18 19 18 18 20 20 20 23 25 24 21 21 26 30 33 34 28 24 28 29 23 21 29 33 31 30 30 31 32 35 43
22 19 18 16 16 17 16 16 15 14 13 15 16 16 16 16 17 17 17 17 17 16 15 14 13 12 11 11 10 10 10 10 9 9 9 8 7 7 8 9 9 9 9 9 11 12 12 12 12 12 12 14 17 17 18 20 19 20 21 20 19 22 24 23 20 19 23 29 33 35 30 25 28 30 26 23 28 33 32 31 31 32 32 34 41
21 18 17 17 17 17 17 17 15 14 14 15 16 16 17 18 18 17 17 17 17 17 17 15 14 14 15 16 16 15 15 14 13 11 10 9 9 9 9 11 11 11 10 10 12 13 12 12 12 11 11 13 17 18 18 20 20 20 21 20 19 21 23 23 20 17 20 27 33 36 33 27 28 31 28 26 29 33 33 32 32 32 32 35 39
19 17 18 18 18 17 17 18 16 14 15 16 16 17 18 18 18 18 17 17 17 17 18 18 19 20 20 20 20 19 19 18 18 17 16 14 13 12 10 10 11 12 12 12 12 12 11 11 11 10 11 13 15 17 18 19 20 20 20 20 20 21 23 22 18 17 19 25 32 36 34 29 28 30 30 28 32 35 34 33 32 31 33 35 36
17 18 19 19 18 17 17 18 16 14 16 17 18 19 18 18 18 18 18 18 17 17 18 20 22 22 21 21 21 20 20 19 18 18 18 18 17 15 13 11 10 11 11 12 12 11 10 10 10 10 10 11 13 16 18 20 21 20 20 20 19 21 23 19 16 16 18 24 32 34 33 31 29 30 30 30 34 36 35 34 32 31 34 36 34
18 20 19 19 19 18 19 17 15 15 17 19 20 20 19 18 18 18 18 18 18 18 19 20 20 19 19 18 18 17 16 15 15 15 16 17 17 16 16 14 12 11 11 12 11 10 9 8 9 10 9 9 11 14 17 19 21 21 20 20 19 21 24 20 17 19 18 22 32 32 30 31 30 29 30 31 35 36 34 33 33 34 36 36 33
21 22 21 20 19 19 20 16 14 17 20 21 21 21 20 19 18 17 17 17 18 18 19 18 16 14 13 11 11 11 8 7 7 7 9 12 13 14 14 13 13 13 12 12 11 10 8 7 7 7 8 8 9 12 14 17 20 21 21 21 20 22 25 22 20 23 19 19 30 32 28 30 31 28 29 31 34 35 33 33 34 35 37 36 34
24 22 21 20 19 19 19 15 16 21 22 22 23 22 21 19 17 17 17 17 17 17 16 15 14 12 11 10 10 9 6 5 6 4 3 5 7 10 11 10 11 12 12 12 11 10 8 7 6 5 7 8 9 11 12 15 20 22 21 21 20 21 25 21 19 22 18 16 29 32 25 29 32 29 29 32 34 33 32 34 35 35 36 37 36
23 21 20 20 18 19 18 16 19 23 23 24 24 23 21 19 17 17 17 17 17 16 15 14 13 12 12 10 10 9 6 8 11 8 5 4 3 4 7 5 5 8 9 9 8 7 7 6 6 5 5 7 8 9 10 12 17 21 20 18 17 19 22 19 17 21 17 15 26 31 23 26 32 29 29 33 34 32 32 34 36 36 34 36 37
20 20 20 19 17 18 18 18 22 25 25 26 26 23 21 18 17 17 17 17 17 16 15 14 13 12 11 10 11 9 8 11 12 10 8 6 5 5 5 3 1 1 4 7 7 6 6 6 6 6 6 6 7 7 9 8 12 19 18 15 17 19 20 18 17 21 20 15 24 32 25 24 30 29 29 34 34 31 30 34 37 36 34 36 37
20 20 20 18 16 18 19 21 24 26 27 27 26 24 21 18 17 17 16 16 16 15 15 14 13 13 12 10 11 10 11 14 13 11 8 6 5 5 5 4 3 3 2 6 7 7 8 7 8 9 8 8 7 7 9 7 9 16 16 15 19 21 19 16 14 20 22 16 21 31 26 22 26 28 29 33 34 30 28 33 38 37 34 37 38
21 20 19 18 17 18 20 22 26 29 30 28 27 25 22 20 18 17 16 16 16 16 15 12 12 14 13 12 11 11 14 16 14 11 8 5 5 5 4 3 3 2 1 4 6 8 9 10 10 9 8 8 7 7 10 8 9 15 16 15 18 20 19 16 13 18 21 15 19 29 25 20 23 26 27 28 29 29 28 30 36 37 34 37 39
20 19 18 18 17 18 20 23 28 31 31 29 28 26 22 20 19 17 16 17 17 16 15 12 12 13 13 12 11 12 16 17 14 11 7 4 5 5 2 2 2 2 3 3 4 7 10 11 11 9 8 9 8 8 12 11 11 15 15 14 18 20 19 17 16 16 13 11 18 26 22 18 20 24 26 22 17 22 28 29 33 36 35 37 39
Wind_Direction
201 200 205 209 211 206 205 202 208 204 192 230 228 207 228 247 247 264 282 286 284 277 285 305 290 280 279 270 298 304 299 44 48 27 33 22 357 358 3 1 11 19 20 21 15 7 1 354 352 349 348 343 334 328 327 327 325 324 323 321 319 321 323 322 323 321 317 315 310 305 300 299 300 299 301 303 302 307 310 308 314 317 305 281 277
202 202 207 213 211 199 202 207 213 199 173 204 226 210 236 267 256 267 281 283 296 297 300 302 291 281 276 261 268 354 87 72 42 36 46 33 5 356 8 6 14 24 29 28 18 10 6 360 355 351 347 343 337 335 334 331 329 329 331 331 327 325 326 326 324 321 316 315 313 311 307 302 299 297 298 300 301 302 304 303 302 311 312 293 277
204 204 208 212 211 204 205 208 208 194 179 199 219 231 248 269 260 272 282 284 295 291 289 287 291 306 300 305 62 73 66 54 37 49 42 31 27 15 13 10 15 28 34 32 29 27 18 8 3 356 350 344 343 344 342 340 339 339 339 339 338 333 334 334 331 326 319 315 314 312 311 308 301 296 295 296 297 297 298 300 299 300 309 306 285
207 203 207 209 212 210 206 209 202 189 194 199 201 217 237 254 248 257 262 270 277 272 270 265 291 329 331 348 48 65 47 42 41 53 44 43 51 30 16 19 26 30 30 35 38 37 29 21 16 7 4 4 3 2 358 358 358 356 355 355 354 347 343 341 338 334 330 324 319 316 313 310 305 300 296 293 293 296 297 298 299 295 299 305 295
208 202 210 210 210 211 206 207 197 189 196 202 209 211 233 251 238 245 243 246 257 252 260 259 288 354 353 355 38 58 44 51 58 62 60 58 57 51 48 36 33 30 24 31 33 32 28 21 17 14 20 23 19 14 10 8 7 5 4 2 359 357 356 355 350 344 341 336 331 326 320 314 308 303 299 295 292 293 295 296 299 298 292 294 294
209 208 215 212 210 213 208 205 199 192 184 192 217 223 238 247 235 249 246 242 252 246 261 279 8 19 32 8 32 43 34 78 69 68 72 68 68 69 64 50 35 25 17 24 28 23 21 16 16 25 34 31 26 23 18 11 7 3 359 355 350 346 349 356 358 355 353 350 343 340 337 328 319 312 304 298 295 293 292 292 293 298 296 288 291
212 215 215 211 217 218 208 204 194 186 176 174 187 232 246 246 234 266 267 259 254 248 272 359 69 15 32 38 54 28 38 85 74 68 76 79 81 73 64 58 47 34 17 14 18 16 17 16 21 39 39 31 27 24 21 16 12 9 5 2 356 348 345 349 354 357 0 2 358 353 351 345 333 325 315 304 300 295 292 290 287 291 297 295 295
213 217 215 216 221 220 212 200 181 184 189 174 166 228 249 276 320 284 277 271 257 236 286 30 142 327 282 130 84 32 53 79 76 77 79 79 79 71 62 56 49 44 32 23 25 19 14 14 25 41 32 25 25 23 21 20 18 15 12 8 5 2 0 358 354 352 353 357 360 358 359 358 350 340 331 320 311 299 290 289 286 284 291 297 297
210 213 217 220 222 221 205 174 165 221 223 180 177 209 209 252 286 281 292 287 278 226 15 340 301 285 319 92 74 51 79 79 79 85 82 76 71 64 56 50 52 50 37 35 38 25 7 5 22 33 25 21 22 22 21 21 17 14 12 8 7 6 5 4 359 353 346 345 351 356 357 1 360 356 350 341 330 318 309 300 292 283 281 288 294
211 213 216 219 222 217 180 165 189 237 243 207 215 217 171 181 203 224 307 300 319 29 38 315 303 291 55 85 97 96 102 100 90 89 84 76 66 66 60 48 55 53 36 36 42 31 11 6 19 23 23 22 18 15 15 17 16 12 10 8 8 7 5 5 4 1 356 351 355 358 354 353 356 358 0 356 347 339 331 320 307 291 281 280 284
212 213 215 216 213 166 146 183 199 222 231 215 222 213 175 175 172 158 309 288 325 5 286 280 298 253 100 108 117 100 107 106 93 90 89 81 65 71 68 42 46 50 35 32 38 42 36 31 31 25 21 18 14 11 8 13 14 10 9 9 8 6 5 6 6 6 2 358 0 360 351 349 350 349 353 356 356 350 341 334 326 315 300 285 276
212 215 215 215 195 133 158 187 189 221 225 208 212 207 180 158 151 233 294 284 252 341 304 264 274 231 169 136 122 108 112 104 95 94 89 91 76 72 69 39 36 46 36 32 38 46 47 36 28 20 16 12 9 6 3 10 10 7 9 8 5 5 6 7 8 6 4 0 1 0 351 350 354 349 346 349 353 355 352 348 342 337 329 311 292
211 216 218 213 152 118 175 189 174 208 215 201 194 192 166 135 157 144 297 292 284 353 321 284 269 255 156 129 122 124 126 118 109 101 90 100 95 76 67 41 37 48 39 37 41 43 45 35 25 17 15 13 10 4 359 2 7 9 7 1 360 3 5 7 8 6 4 2 3 1 355 355 354 348 348 350 348 350 354 355 351 348 344 338 328
210 220 230 223 125 109 186 191 173 190 204 191 173 179 154 126 272 103 292 283 279 27 344 13 21 346 221 128 123 127 135 137 119 110 99 97 95 78 64 48 48 50 39 39 40 39 38 30 28 22 17 17 13 4 355 357 7 8 0 358 0 4 7 9 8 5 3 4 5 2 359 1 357 350 354 354 347 342 343 347 349 348 347 346 342
206 221 253 8 75 123 203 187 175 186 188 181 167 168 128 115 145 106 250 261 231 55 5 30 29 348 278 211 141 140 153 178 153 137 125 106 99 83 65 57 61 51 37 41 40 36 29 24 28 22 15 18 13 5 0 359 0 356 355 1 2 2 7 12 9 6 4 5 5 2 2 3 358 357 359 356 349 340 332 335 341 340 340 344 345
201 201 188 66 74 138 198 179 174 177 172 172 161 136 117 134 124 94 259 255 193 94 27 39 44 33 329 259 207 161 141 197 155 147 146 120 106 87 76 71 69 56 39 40 45 42 31 27 29 19 18 22 14 12 12 2 354 353 358 2 2 2 8 14 12 10 7 7 5 2 3 2 358 359 359 355 352 346 339 338 340 339 338 341 342
208 197 159 102 93 148 180 177 174 169 161 161 148 135 138 140 115 97 263 267 202 137 90 53 58 55 44 20 279 145 87 345 99 147 168 125 111 94 90 84 71 58 44 43 53 51 35 28 26 23 26 25 18 17 17 11 2 359 359 360 3 5 8 12 14 12 9 8 7 4 2 0 357 357 356 353 352 349 347 345 344 345 345 342 335
205 181 140 128 134 146 153 171 176 166 162 155 144 142 135 112 101 195 235 293 287 163 124 91 75 65 57 67 64 68 54 346 14 171 158 112 107 99 92 87 77 65 50 45 52 50 39 31 27 26 26 21 19 16 14 13 1 356 359 1 3 4 6 10 11 10 10 8 7 7 4 1 358 356 353 352 350 349 348 347 347 347 347 344 336
163 149 147 143 150 148 145 162 165 152 154 150 136 125 111 90 91 127 97 28 330 81 117 109 91 81 66 74 79 75 66 46 42 15 139 101 96 95 94 97 90 71 62 55 54 51 40 34 32 26 23 19 16 15 10 2 352 355 1 1 358 360 6 8 6 5 8 10 10 8 6 2 359 357 354 351 350 349 347 346 347 346 344 343 339
140 133 145 142 144 144 138 148 152 135 126 121 111 102 104 106 114 102 73 83 51 63 87 79 76 80 70 72 97 101 78 60 48 30 14 89 95 103 107 113 104 79 74 71 60 52 40 37 37 28 23 21 17 15 9 356 354 1 4 359 356 0 5 4 4 5 9 13 11 8 5 0 358 357 355 353 351 349 348 347 346 344 343 341 338
129 119 134 135 133 133 130 132 139 130 117 112 111 106 105 106 106 97 87 90 75 76 83 76 70 65 56 53 63 104 92 68 46 32 28 43 76 113 110 114 108 85 76 77 65 48 44 45 38 32 25 21 19 16 8 360 1 4 5 3 0 4 7 6 7 9 12 13 10 8 5 1 360 358 357 356 354 352 351 349 347 345 343 341 339
131 117 124 129 122 122 126 129 132 131 123 117 120 120 112 108 109 106 103 97 86 85 85 84 80 68 63 60 50 55 72 65 42 27 28 43 25 19 65 79 103 96 73 70 67 46 54 53 35 32 23 17 20 16 8 359 357 360 5 7 5 7 7 6 9 10 11 11 9 9 7 4 3 1 359 357 355 355 353 351 349 347 345 342 340
143 127 128 135 130 124 129 134 129 124 123 120 118 120 119 117 117 110 102 96 90 89 85 85 84 77 72 69 62 57 58 59 46 32 29 33 6 5 38 16 46 118 93 74 74 58 72 60 35 31 21 17 17 10 4 353 354 4 7 4 8 10 8 9 9 9 11 10 10 10 8 6 4 2 1 358 357 356 354 353 351 348 347 344 342
147 135 132 135 130 125 129 132 126 120 126 126 119 120 124 125 121 111 103 99 99 97 90 86 84 81 77 73 73 70 65 63 56 47 38 35 25 12 17 359 358 123 118 103 82 66 78 65 42 37 20 13 11 7 3 351 1 16 9 360 10 10 8 10 8 9 13 11 12 11 9 8 6 3 2 1 360 359 356 355 353 351 349 347 346
151 140 133 129 126 130 134 132 127 124 126 123 121 124 126 123 115 106 101 98 99 99 92 89 87 85 84 79 78 75 72 69 63 59 47 44 46 20 360 346 321 129 114 99 71 55 72 67 48 37 17 11 14 10 5 352 3 16 14 10 11 2 1 7 7 12 14 12 14 11 8 9 9 7 6 4 2 0 359 358 356 354 354 353 351
157 143 134 130 130 136 137 133 135 134 125 120 121 124 122 117 111 105 101 97 98 98 93 92 90 89 89 85 83 78 74 72 66 64 54 49 50 23 355 338 306 126 99 89 72 52 48 53 45 33 18 19 21 10 7 0 1 11 20 17 8 359 359 3 7 14 15 14 16 11 7 10 11 12 10 7 6 4 2 360 357 358 357 355 352
155 140 135 135 135 138 135 133 135 132 127 125 123 121 118 114 111 106 103 101 100 98 94 93 90 90 90 88 86 82 75 71 68 67 61 56 51 31 19 5 321 69 85 80 77 60 33 30 39 32 21 22 22 12 14 11 4 12 19 11 7 5 3 3 7 15 16 18 17 11 9 11 11 13 14 11 10 8 5 1 359 359 356 353 351
146 138 138 141 140 139 135 131 129 128 130 130 124 120 117 112 109 106 101 99 97 95 94 93 90 90 90 87 84 80 77 76 73 68 63 61 56 44 42 34 359 23 74 59 61 56 37 22 25 29 21 22 25 18 17 11 7 14 16 9 10 7 6 6 6 14 17 17 12 8 9 10 9 11 13 11 9 8 8 6 4 1 357 353 350
147 143 143 145 142 137 133 130 128 129 131 128 122 119 115 111 110 108 104 102 99 96 94 92 91 91 90 88 85 80 78 77 74 70 67 63 56 52 50 39 18 9 56 63 42 39 34 17 15 24 17 19 24 19 17 11 10 15 15 13 11 4 6 5 1 12 15 9 6 7 9 10 8 9 10 9 8 8 7 7 6 3 359 354 349
151 148 144 142 140 136 133 130 129 130 129 125 122 118 115 113 110 107 105 104 100 97 97 95 93 91 89 87 85 83 80 76 72 69 67 65 58 57 57 49 41 24 7 55 74 44 31 15 21 24 14 16 22 18 18 14 12 17 14 14 13 5 4 359 356 8 7 1 3 7 9 9 7 9 10 9 9 9 7 6 5 3 359 355 351
152 151 147 141 138 135 134 132 132 131 128 123 120 117 114 112 111 108 107 106 103 99 97 96 94 91 90 87 83 81 79 76 73 68 63 64 63 62 61 54 49 32 15 33 90 65 36 19 26 26 13 16 21 16 17 15 15 18 14 13 14 7 2 357 353 358 358 359 3 4 6 8 7 8 10 9 9 9 7 4 2 1 359 355 353
152 153 150 141 138 139 137 136 134 131 127 122 119 118 115 113 113 112 110 108 105 103 99 97 95 91 90 89 84 82 81 76 74 71 65 64 63 64 66 60 50 38 34 47 80 87 50 27 31 30 14 15 21 15 15 14 14 17 13 11 11 8 5 360 353 352 354 359 3 1 4 7 6 7 9 8 9 10 6 0 359 0 359 356 355
152 149 146 141 142 145 140 137 136 132 127 123 120 119 118 118 117 115 113 110 107 106 103 98 96 94 92 89 84 82 83 79 76 74 69 67 67 66 66 65 55 41 40 52 60 72 55 32 31 30 17 16 19 15 14 10 10 14 11 9 10 8 7 3 357 355 355 359 2 1 1 5 6 6 7 5 7 9 4 358 359 0 359 358 358
147 144 146 147 148 146 139 138 138 133 131 129 126 125 124 121 119 118 116 114 111 108 104 100 98 98 94 89 84 80 79 76 75 74 71 70 71 70 67 67 65 49 41 49 53 52 49 38 31 24 15 16 17 16 14 9 9 10 6 6 7 6 5 3 3 1 357 359 3 1 358 2 5 5 4 2 4 5 1 358 359 1 3 3 1
146 147 150 150 148 145 141 141 140 137 136 134 131 130 128 124 123 122 119 116 113 110 107 103 101 98 93 90 87 83 80 77 74 71 71 73 73 75 74 68 69 65 50 48 50 48 48 45 36 23 16 16 16 14 11 9 10 8 3 3 4 2 359 359 4 5 359 360 4 1 357 358 360 0 1 360 0 1 357 355 357 1 7 9 7
145 149 148 147 148 146 143 144 145 142 140 138 137 134 131 129 126 124 121 119 117 114 111 108 105 101 96 92 89 86 85 80 76 72 71 73 73 76 82 75 68 70 63 54 49 50 51 46 40 31 21 16 14 12 8 6 8 7 4 3 3 1 357 357 4 6 1 2 4 2 358 355 355 355 357 359 358 357 354 351 352 357 6 12 10
147 150 147 147 150 148 146 149 149 146 144 145 143 138 134 132 129 127 126 123 120 116 113 110 106 102 98 93 91 91 89 82 77 74 70 73 74 72 78 81 73 66 71 66 54 51 55 48 40 34 25 17 14 12 7 3 3 5 4 5 6 2 357 360 8 6 1 2 3 3 359 357 357 354 352 358 358 356 355 350 345 349 1 10 11
146 148 147 150 153 151 151 153 150 148 149 148 144 140 137 135 132 132 128 124 120 116 112 108 105 103 101 101 102 103 101 95 90 84 76 75 77 74 71 74 76 67 68 72 62 53 54 49 42 35 26 18 12 10 8 3 2 3 0 1 7 6 359 0 6 3 1 2 2 3 1 358 360 359 351 352 355 355 355 350 342 341 352 5 9
145 147 150 155 156 154 154 154 150 150 151 148 145 141 139 138 135 132 128 124 122 118 113 111 110 109 111 113 118 118 113 109 106 100 91 84 81 84 78 69 69 66 64 70 68 59 51 48 44 37 28 19 13 9 6 4 6 5 359 355 359 3 0 359 359 357 359 1 1 3 3 358 0 2 356 350 352 352 351 347 341 339 345 357 6
147 152 157 158 157 156 155 151 148 151 153 149 147 144 140 139 137 133 131 128 124 119 115 112 111 112 114 117 119 117 111 107 108 106 103 105 110 107 96 82 72 67 63 66 68 63 53 45 42 37 29 21 14 9 6 6 5 1 358 355 353 357 357 354 355 356 356 358 360 2 3 359 357 360 359 354 354 352 348 345 341 339 344 353 2
150 154 160 159 155 153 151 148 148 152 154 151 150 148 143 141 139 137 134 130 126 122 116 112 112 112 110 109 107 105 105 101 98 96 100 113 121 112 101 93 83 74 65 61 64 65 56 44 39 35 30 23 15 9 7 6 1 355 356 356 353 355 353 347 352 1 356 354 358 1 3 1 356 355 356 355 354 352 348 345 342 341 347 354 360
149 154 159 159 156 150 145 146 152 156 157 157 155 150 146 144 142 139 136 133 130 126 121 116 114 111 107 105 104 104 104 99 94 91 88 91 99 101 100 98 94 88 78 66 60 63 61 50 38 31 30 25 17 11 7 4 2 359 357 355 352 354 350 343 351 5 358 354 359 0 2 2 357 353 353 354 353 350 348 346 343 345 351 355 358
151 157 158 157 158 155 147 147 157 163 161 159 155 150 147 147 144 142 140 138 133 130 127 122 116 112 110 109 108 105 101 97 92 87 85 84 85 88 93 97 98 97 92 80 66 60 63 56 43 37 32 22 15 13 10 6 4 2 359 354 351 352 349 341 348 1 358 357 0 359 359 1 358 353 353 355 352 350 349 349 350 351 354 354 356
156 159 157 156 158 157 153 153 160 163 158 155 153 150 148 147 145 144 142 139 136 133 132 128 122 118 116 113 110 107 103 97 89 81 80 82 81 82 85 88 94 96 96 92 79 66 66 63 51 42 33 21 13 11 11 10 6 4 1 355 351 352 349 342 349 0 357 358 2 359 355 357 357 353 354 355 352 351 353 355 356 356 354 352 353
159 157 155 158 159 155 155 158 160 159 156 155 154 151 148 146 145 145 143 140 139 137 136 136 133 133 134 128 123 123 122 113 99 82 73 74 75 78 78 77 83 90 92 91 87 80 77 74 62 46 31 23 16 13 14 14 10 7 360 352 349 351 348 344 354 1 355 357 6 3 353 353 355 350 350 353 353 353 357 357 357 357 356 354 354
157 156 154 156 156 155 158 161 162 161 159 159 156 151 148 147 147 146 145 142 141 141 143 145 145 148 149 146 145 146 152 162 164 160 116 86 77 78 82 79 75 80 84 83 85 84 78 72 62 43 32 25 19 19 21 20 18 12 359 350 348 349 347 346 354 0 355 359 10 6 351 349 352 348 347 351 351 353 357 358 357 357 357 357 357
151 155 158 158 157 161 165 164 164 163 162 161 158 152 150 150 148 145 144 143 142 143 146 146 147 150 149 150 157 162 173 178 173 165 158 168 158 110 112 114 78 70 68 61 61 61 56 51 38 21 17 14 10 13 18 22 25 19 6 357 354 351 351 350 352 357 358 1 9 6 352 345 350 347 347 350 348 349 357 359 358 357 358 359 358
150 154 159 160 160 163 163 162 163 164 163 162 159 155 151 147 143 143 142 141 142 143 144 144 145 147 149 155 161 169 183 180 172 164 154 153 156 150 157 179 242 353 24 20 23 23 13 4 358 349 345 350 351 355 2 12 22 18 9 2 2 357 352 351 352 354 353 358 8 5 351 343 349 350 350 349 345 344 354 1 359 357 359 359 358
154 157 159 163 165 164 162 165 168 165 163 163 160 153 147 141 140 143 143 142 144 144 143 145 148 147 149 156 161 170 177 171 167 168 162 147 139 149 162 176 215 238 330 356 359 2 351 336 333 331 329 338 343 349 356 0 16 13 360 352 1 359 348 347 354 350 345 351 6 1 350 345 353 356 353 349 344 343 351 359 359 358 359 360 359
158 162 162 164 168 166 166 171 171 166 164 164 159 152 148 145 143 146 148 148 149 149 147 147 154 154 151 155 162 170 171 168 168 169 164 150 136 142 174 191 184 187 271 330 330 334 332 325 327 329 334 344 350 4 8 11 23 15 359 350 358 356 343 341 350 347 341 344 360 358 350 348 356 359 355 347 343 343 347 355 358 357 359 360 358
161 164 165 165 165 165 167 171 169 166 165 163 159 156 154 151 148 150 156 156 155 156 152 147 155 162 161 162 170 174 170 168 170 168 161 145 129 128 173 204 179 210 249 266 289 309 310 313 325 342 1 3 9 28 24 17 21 14 2 357 358 351 340 338 346 344 331 332 353 353 348 348 354 356 352 345 338 339 343 352 357 356 358 359 357